Starlink 6379

operational
NORAD ID: 57343 Int'l Des: 2023-099 Owner: SPXS Country: US Constellation: starlink
LEOCIRCULAR

Über Starlink 6379

Beschreibung wird geladen...

Live-Position

3D-Globus wird geladen...

Nächste Überflüge

Höhenverlauf

Altitude vs Time

uPlot chart will show altitude changes over time

Zweizeiliger Elementsatz

1 57343U 23099R 25257.36567594 -.00000304 00000-0 -74524-5 0 9997
2 57343 43.0039 126.9990 0001213 268.0590 92.0114 15.02535610119596
Epoch: 14. Sept. 2025 • Age: 40 hours

Aktueller Status

Höhe 562.2 km
Geschwindigkeit 7.59 km/s
Subsatellitenpunkt 39.40°N, 169.36°E
Startdatum 16. Juli 2023
Alter 2.1 years
Typ internet

Technische Details

Klassifizierung Payload
Masse 305.00 kg
Trockenmasse 290.00 kg
Gesamtmasse 305.00 kg
Länge 0.20 m
Durchmesser 2.80 m
Spannweite 9.00 m
Form Box + pan
Hersteller SPXS
Bus-Typ Starlink
Phasenstatus In Orbit
Besitzer/Staat SPXS/US

Große Konstellationen

Loading constellations...